TimeCST,TemperatureF,Dew PointF,Humidity,Sea Level PressureIn,VisibilityMPH,Wind Direction,Wind SpeedMPH,Gust SpeedMPH,PrecipitationIn,Events,Conditions,WindDirDegrees,DateUTC
12:15 AM,62.6,37.4,39,29.89,10.0,NW,24.2,34.5,N/A,,Clear,320,2013-02-26 06:15:00
12:35 AM,62.6,35.6,37,29.88,10.0,NW,31.1,-,N/A,,Clear,320,2013-02-26 06:35:00
12:55 AM,60.8,35.6,39,29.88,10.0,NW,34.5,-,N/A,,Clear,320,2013-02-26 06:55:00
1:15 AM,60.8,33.8,36,29.88,10.0,NW,33.4,41.4,N/A,,Clear,320,2013-02-26 07:15:00
1:35 AM,60.8,33.8,36,29.87,10.0,NW,32.2,42.6,N/A,,Clear,320,2013-02-26 07:35:00
1:55 AM,59.0,35.6,42,29.89,10.0,NW,25.3,38.0,N/A,,Clear,320,2013-02-26 07:55:00
2:15 AM,59.0,35.6,42,29.88,10.0,NW,28.8,34.5,N/A,,Clear,320,2013-02-26 08:15:00
2:35 AM,59.0,35.6,42,29.89,10.0,NW,27.6,34.5,N/A,,Clear,320,2013-02-26 08:35:00
2:55 AM,59.0,37.4,45,29.90,10.0,NW,24.2,34.5,N/A,,Clear,320,2013-02-26 08:55:00
3:15 AM,59.0,35.6,42,29.91,10.0,NW,25.3,31.1,N/A,,Clear,320,2013-02-26 09:15:00
3:35 AM,57.2,35.6,44,29.91,10.0,NW,27.6,33.4,N/A,,Clear,320,2013-02-26 09:35:00
3:55 AM,57.2,33.8,41,29.91,10.0,NW,28.8,-,N/A,,Clear,320,2013-02-26 09:55:00
4:15 AM,57.2,35.6,44,29.92,10.0,NW,26.5,32.2,N/A,,Clear,320,2013-02-26 10:15:00
4:35 AM,57.2,35.6,44,29.92,10.0,NW,24.2,-,N/A,,Clear,320,2013-02-26 10:35:00
4:55 AM,57.2,35.6,44,29.93,10.0,NW,20.7,26.5,N/A,,Clear,320,2013-02-26 10:55:00
5:15 AM,57.2,35.6,44,29.94,10.0,NW,16.1,25.3,N/A,,Clear,310,2013-02-26 11:15:00
5:35 AM,57.2,35.6,44,29.96,10.0,NW,15.0,23.0,N/A,,Clear,320,2013-02-26 11:35:00
5:55 AM,57.2,35.6,44,29.96,10.0,NW,15.0,-,N/A,,Clear,310,2013-02-26 11:55:00
6:15 AM,57.2,35.6,44,29.97,10.0,NW,16.1,21.9,N/A,,Clear,320,2013-02-26 12:15:00
6:35 AM,55.4,35.6,47,29.98,10.0,NW,18.4,-,N/A,,Clear,310,2013-02-26 12:35:00
6:55 AM,55.4,33.8,44,29.98,10.0,NW,17.3,-,N/A,,Clear,320,2013-02-26 12:55:00
7:15 AM,55.4,33.8,44,29.98,10.0,NW,12.7,20.7,N/A,,Clear,310,2013-02-26 13:15:00
7:35 AM,55.4,33.8,44,29.99,10.0,NNW,16.1,21.9,N/A,,Clear,330,2013-02-26 13:35:00
7:55 AM,55.4,35.6,47,29.99,10.0,NW,16.1,21.9,N/A,,Clear,320,2013-02-26 13:55:00
8:15 AM,55.4,35.6,47,30.00,10.0,NW,13.8,-,N/A,,Clear,320,2013-02-26 14:15:00
8:35 AM,57.2,35.6,44,30.01,10.0,NW,13.8,-,N/A,,Clear,320,2013-02-26 14:35:00
8:55 AM,57.2,35.6,44,30.01,10.0,NW,13.8,-,N/A,,Clear,320,2013-02-26 14:55:00
9:15 AM,57.2,33.8,41,30.02,10.0,NW,13.8,-,N/A,,Clear,320,2013-02-26 15:15:00
9:35 AM,59.0,35.6,42,30.02,10.0,NW,15.0,-,N/A,,Clear,320,2013-02-26 15:35:00
9:55 AM,59.0,33.8,39,30.02,10.0,NW,13.8,-,N/A,,Clear,320,2013-02-26 15:55:00
10:15 AM,59.0,35.6,42,30.03,10.0,NW,13.8,-,N/A,,Clear,320,2013-02-26 16:15:00
10:35 AM,59.0,33.8,39,30.03,10.0,NW,11.5,-,N/A,,Clear,320,2013-02-26 16:35:00
10:55 AM,60.8,35.6,39,30.03,10.0,NW,8.1,-,N/A,,Clear,320,2013-02-26 16:55:00
11:15 AM,60.8,35.6,39,30.03,10.0,NW,6.9,-,N/A,,Clear,310,2013-02-26 17:15:00
11:35 AM,60.8,35.6,39,30.02,10.0,NW,8.1,-,N/A,,Clear,320,2013-02-26 17:35:00
11:55 AM,62.6,35.6,37,30.01,10.0,NW,8.1,-,N/A,,Clear,320,2013-02-26 17:55:00
12:15 PM,60.8,37.4,42,29.99,10.0,NNW,8.1,-,N/A,,Clear,330,2013-02-26 18:15:00
12:35 PM,62.6,35.6,37,29.99,10.0,NW,6.9,-,N/A,,Clear,320,2013-02-26 18:35:00
12:55 PM,62.6,37.4,39,29.98,-9999.0,NNW,5.8,-,N/A,,Clear,330,2013-02-26 18:55:00
1:15 PM,60.8,37.4,42,29.96,10.0,NNW,5.8,-,N/A,,Clear,330,2013-02-26 19:15:00
1:35 PM,62.6,37.4,39,29.95,10.0,NW,5.8,-,N/A,,Clear,320,2013-02-26 19:35:00
1:55 PM,60.8,39.2,45,29.94,10.0,Calm,Calm,-,N/A,,Clear,0,2013-02-26 19:55:00
2:15 PM,60.8,37.4,42,29.92,10.0,North,4.6,-,N/A,,Clear,350,2013-02-26 20:15:00
2:35 PM,60.8,37.4,42,29.92,10.0,Calm,Calm,-,N/A,,Clear,0,2013-02-26 20:35:00
2:55 PM,60.8,37.4,42,29.92,10.0,Calm,Calm,-,N/A,,Clear,0,2013-02-26 20:55:00
3:15 PM,60.8,37.4,42,29.91,10.0,Variable,3.5,-,N/A,,Clear,0,2013-02-26 21:15:00
3:35 PM,60.8,39.2,45,29.92,10.0,SE,4.6,-,N/A,,Clear,130,2013-02-26 21:35:00
3:55 PM,60.8,39.2,45,29.91,10.0,ESE,6.9,-,N/A,,Clear,120,2013-02-26 21:55:00
4:15 PM,60.8,39.2,45,29.90,10.0,ESE,8.1,-,N/A,,Clear,110,2013-02-26 22:15:00
4:35 PM,60.8,41.0,48,29.89,10.0,ESE,11.5,-,N/A,,Clear,110,2013-02-26 22:35:00
4:55 PM,60.8,41.0,48,29.89,10.0,East,10.4,-,N/A,,Clear,100,2013-02-26 22:55:00
5:15 PM,60.8,42.8,52,29.90,10.0,ESE,10.4,-,N/A,,Clear,110,2013-02-26 23:15:00
5:35 PM,62.6,41.0,45,29.90,10.0,ESE,11.5,-,N/A,,Clear,120,2013-02-26 23:35:00
5:55 PM,62.6,42.8,48,29.90,10.0,ESE,11.5,-,N/A,,Clear,120,2013-02-26 23:55:00
6:15 PM,62.6,42.8,48,29.91,10.0,ESE,11.5,-,N/A,,Clear,110,2013-02-27 00:15:00
6:35 PM,62.6,42.8,48,29.92,10.0,SE,12.7,-,N/A,,Clear,130,2013-02-27 00:35:00
6:55 PM,62.6,44.6,52,29.92,10.0,SE,15.0,-,N/A,,Clear,130,2013-02-27 00:55:00
7:15 PM,62.6,44.6,52,29.92,10.0,SE,13.8,-,N/A,,Clear,130,2013-02-27 01:15:00
7:35 PM,62.6,42.8,48,29.93,10.0,SE,13.8,-,N/A,,Clear,140,2013-02-27 01:35:00
7:55 PM,62.6,46.4,55,29.94,10.0,SE,15.0,-,N/A,,Clear,140,2013-02-27 01:55:00
8:15 PM,62.6,48.2,59,29.94,10.0,North,-9999.0,-,N/A,,Clear,0,2013-02-27 02:15:00
8:35 PM,62.6,46.4,55,29.94,10.0,SE,13.8,-,N/A,,Clear,140,2013-02-27 02:35:00
8:55 PM,64.4,48.2,56,29.95,10.0,SSE,15.0,-,N/A,,Clear,150,2013-02-27 02:55:00
9:15 PM,64.4,48.2,56,29.95,10.0,SSE,16.1,-,N/A,,Clear,150,2013-02-27 03:15:00
9:35 PM,64.4,48.2,56,29.95,10.0,SSE,18.4,-,N/A,,Clear,150,2013-02-27 03:35:00
9:55 PM,64.4,50.0,59,29.95,10.0,SSE,16.1,-,N/A,,Clear,160,2013-02-27 03:55:00
10:15 PM,64.4,50.0,59,29.95,10.0,SSE,15.0,-,N/A,,Clear,160,2013-02-27 04:15:00
10:35 PM,64.4,50.0,59,29.95,10.0,SSE,16.1,-,N/A,,Clear,160,2013-02-27 04:35:00
10:55 PM,64.4,51.8,64,29.94,10.0,SSE,16.1,-,N/A,,Clear,150,2013-02-27 04:55:00
11:15 PM,64.4,48.2,56,29.93,10.0,SSE,18.4,-,N/A,,Clear,150,2013-02-27 05:15:00
11:35 PM,64.4,50.0,59,29.93,10.0,SSE,18.4,-,N/A,,Clear,150,2013-02-27 05:35:00
11:55 PM,64.4,50.0,59,29.91,10.0,SSE,19.6,-,N/A,,Partly Cloudy,160,2013-02-27 05:55:00